Location: Conway
(43.9790°N, 71.1210°W)
Time: 16:20:50
(UTC-04:00)

Tiangong 2 - Visible Passes

Search period start: 23 March 2019 00:00
Search period end: 02 April 2019 00:00
Orbit: 380 x 390 km, 42.8° (Epoch: 23 March)

Date Brightness Start Highest point End Pass type
(mag) Time Alt. Az. Time Alt. Az. Time Alt. Az.
23 Mar 3.4 05:55:33 10° SW 05:56:23 11° SW 05:57:24 10° SSW visible
24 Mar 3.8 04:59:20 10° SSE 04:59:20 10° SSE 04:59:23 10° SSE visible
30 Mar 2.7 20:22:14 10° SSW 20:24:26 20° SSE 20:24:26 20° SSE visible
31 Mar 2.4 20:58:31 10° WSW 21:00:26 30° SSW 21:00:26 30° SSW visible
01 Apr 2.1 19:59:17 10° SW 20:02:05 30° SSE 20:04:01 16° ESE visible
01 Apr 3.7 21:35:28 10° WSW 21:36:16 16° WSW 21:36:16 16° WSW visible
